Tracking 20712 objects as of 28-May-2020
HD Live streaming from Space Station
objects crossing your sky now

COSMOS 1275 DEB

Track COSMOS 1275 DEB now!
10-day predictions


NORAD ID: 42130
Int'l Code: 1981-053QS
Perigee: 857.5 km
Apogee: 887.9 km
Inclination: 82.9 °
Period: 102.3 minutes
Semi major axis: 7243 km
RCS: Unknown
Launch date: June 4, 1981
Source: Commonwealth of Independent States (former USSR) (CIS)
Launch site: PLESETSK MISSILE AND SPACE COMPLEX (PKMTR)

Note: This is SATELLITE DEBRIS
aabbcc
Your satellite tracking list
Your tracking list is empty




NASA's NSSDC Master Catalog

Two Line Element Set (TLE):
1 42130U 81053QS  20148.03127062 +.00000513 +00000-0 +29104-3 0  9991
2 42130 082.8633 054.0725 0020974 353.8588 006.2326 14.08189505334142
Source of the keplerian elements: AFSPC